Location: Hains Lake
(37.8540°N, 99.8578°W)
Time: 03:03:34
(UTC+00:00)

Transit 2A - Pass Details

Date: 19 April 2021
Orbit: 602 x 957 km, 66.7° (Epoch: 14 May)

Event Time Altitude Azimuth Distance (km) Brightness Sun altitude
Rises 13:18:43 0° 198° (SSW) 3,159 9.0 14.8°
Reaches altitude 10° 13:21:11 10° 195° (SSW) 2,184 8.2 15.3°
Maximum altitude 13:26:02 62° 115° (ESE) 750 6.7 16.3°
Drops below altitude 10° 13:30:31 10° 35° (NE) 2,020 8.8 17.2°
Sets 13:32:43 0° 32° (NNE) 2,901 9.5 17.6°
